Weather History for K05U - December, 2012

Change the Weather History Date:

Thursday, December 13, 2012

  Actual Average Record
Temperature  
Mean Temperature 32 °F -  
Max Temperature 37 °F - - ()
Min Temperature 28 °F - - ()
Degree Days  
Heating Degree Days 32    
Moisture  
Dew Point 29 °F    
Average Humidity 84    
Maximum Humidity 100    
Minimum Humidity 60    
Precipitation  
Precipitation 0.04 in - - ()
Sea Level Pressure  
Sea Level Pressure 29.75 in    
Wind  
Wind Speed 10 mph (SSE)    
Max Wind Speed 16 mph    
Max Gust Speed 23 mph    
Visibility 7 miles    
Events      
T = Trace of Precipitation, MM = Missing Value Source: NWS Daily Summary

Daily Weather History Graph

Daily Weather History Graph

Search for Another Location

Airport or City:

Trip Planner

Search our weather history database for the weather conditions in past years. The results will help you decide how hot, cold, wet, or windy it might be!

Date:

Astronomy

Dec. 13, 2012 Rise Set
Actual Time 6:56 AM PST 4:20 PM PST
Civil Twilight 6:26 AM PST 4:50 PM PST
Nautical Twilight 5:52 AM PST 5:24 PM PST
Astronomical Twilight 5:19 AM PST 5:57 PM PST
Moon 7:09 AM PST (12/13) 5:07 PM PST (12/13)
Length of Visible Light 10h 24m
Length of Day
9h 24m
New Moon, 0% of the Moon is Illuminated
Dec 13
New Moon
Dec 19
First Quarter
Dec 28
Full
Jan 4
Last Quarter
Jan 11
New

Hourly Weather History & Observations

Time (PST) Temp. Windchill Dew Point Humidity Pressure Visibility Wind Dir Wind Speed Gust Speed Precip Events Conditions
12:00 AM 37.4 °F 28.2 °F 24.8 °F 60% 29.74 in 10.0 mi SSE 16.1 mph 23.0 mph N/A   Overcast
12:20 AM 33.8 °F 25.8 °F 28.4 °F 81% 29.74 in 5.0 mi SSE 10.4 mph - N/A   Overcast
12:40 AM 33.8 °F 27.7 °F 28.4 °F 81% 29.74 in 10.0 mi SSE 6.9 mph - N/A   Mostly Cloudy
1:00 AM 33.8 °F 26.4 °F 28.4 °F 81% 29.74 in 10.0 mi SE 9.2 mph - N/A   Overcast
1:20 AM 35.6 °F 27.1 °F 28.4 °F 75% 29.73 in 10.0 mi SE 12.7 mph - N/A   Overcast
1:40 AM 35.6 °F 26.6 °F 26.6 °F 70% 29.73 in 10.0 mi SSE 13.8 mph - N/A   Overcast
2:00 AM 35.6 °F 26.6 °F 26.6 °F 70% 29.73 in 10.0 mi SSE 13.8 mph - N/A   Overcast
2:20 AM 35.6 °F 26.6 °F 26.6 °F 70% 29.73 in 10.0 mi South 13.8 mph 23.0 mph N/A   Overcast
2:40 AM 35.6 °F 27.1 °F 24.8 °F 65% 29.73 in 10.0 mi South 12.7 mph - N/A   Overcast
3:00 AM 35.6 °F 25.9 °F 24.8 °F 65% 29.72 in 10.0 mi South 16.1 mph 20.7 mph N/A   Overcast
3:20 AM 35.6 °F 26.6 °F 24.8 °F 65% 29.72 in 10.0 mi South 13.8 mph - N/A   Overcast
3:40 AM 37.4 °F 28.5 °F 24.8 °F 60% 29.72 in 10.0 mi South 15.0 mph - N/A   Overcast
4:00 AM 37.4 °F 28.2 °F 24.8 °F 60% 29.72 in 10.0 mi South 16.1 mph 23.0 mph N/A   Overcast
4:20 AM 35.6 °F 28.0 °F 24.8 °F 65% 29.72 in 10.0 mi SSE 10.4 mph - N/A   Overcast
4:40 AM 35.6 °F 28.0 °F 24.8 °F 65% 29.72 in 10.0 mi SSE 10.4 mph - N/A   Overcast
5:00 AM 35.6 °F 26.6 °F 26.6 °F 70% 29.72 in 10.0 mi SSE 13.8 mph - N/A   Overcast
5:20 AM 33.8 °F 25.8 °F 26.6 °F 75% 29.73 in 6.0 mi SSE 10.4 mph - N/A   Overcast
5:40 AM 32.0 °F 23.6 °F 28.4 °F 87% 29.73 in 3.0 mi SSE 10.4 mph - N/A   Mostly Cloudy
6:20 AM 32.0 °F 23.6 °F 28.4 °F 87% 29.73 in 4.0 mi ESE 10.4 mph - N/A   Overcast
6:40 AM 32.0 °F 25.6 °F 28.4 °F 87% 29.73 in 9.0 mi SE 6.9 mph - N/A   Overcast
7:00 AM 32.0 °F 24.2 °F 30.2 °F 93% 29.74 in 1.8 mi SE 9.2 mph - N/A   Overcast
7:20 AM 32.0 °F 25.6 °F 30.2 °F 93% 29.74 in 2.0 mi SE 6.9 mph - N/A   Overcast
7:40 AM 32.0 °F 22.1 °F 28.4 °F 87% 29.74 in 10.0 mi SSE 13.8 mph - N/A   Overcast
8:00 AM 32.0 °F 24.2 °F 28.4 °F 87% 29.76 in 0.2 mi South 9.2 mph 19.6 mph N/A   Overcast
8:20 AM 32.0 °F 26.4 °F 30.2 °F 93% 29.76 in 1.0 mi South 5.8 mph - N/A   Overcast
8:40 AM 32.0 °F 25.6 °F 28.4 °F 87% 29.76 in 2.0 mi South 6.9 mph - N/A   Scattered Clouds
9:00 AM 32.0 °F 24.2 °F 28.4 °F 87% 29.77 in 3.0 mi SSE 9.2 mph - N/A   Partly Cloudy
9:20 AM 33.8 °F 25.8 °F 28.4 °F 81% 29.76 in 7.0 mi SSE 10.4 mph - 0.01 in   Partly Cloudy
9:40 AM 33.8 °F 26.4 °F 28.4 °F 81% 29.77 in 9.0 mi SSE 9.2 mph - 0.02 in   Mostly Cloudy
10:00 AM 33.8 °F 25.8 °F 28.4 °F 81% 29.77 in 9.0 mi South 10.4 mph - 0.02 in   Overcast
10:20 AM 33.8 °F 25.8 °F 28.4 °F 81% 29.78 in 9.0 mi South 10.4 mph - N/A   Mostly Cloudy
10:40 AM 33.8 °F 24.3 °F 28.4 °F 81% 29.78 in 5.0 mi SSE 13.8 mph - N/A   Overcast
11:00 AM 32.0 °F 25.6 °F 30.2 °F 93% 29.78 in 0.5 mi South 6.9 mph - N/A   Overcast
11:20 AM 32.0 °F - 32.0 °F 100% 29.77 in 2.0 mi Calm Calm - N/A   Mostly Cloudy
11:40 AM 35.6 °F - 32.0 °F 87% 29.76 in 6.0 mi Calm Calm - N/A   Mostly Cloudy
12:00 PM 35.6 °F 32.8 °F 32.0 °F 87% 29.76 in 10.0 mi SSW 3.5 mph - N/A   Mostly Cloudy
12:20 PM 37.4 °F - 32.0 °F 81% 29.76 in 10.0 mi Calm Calm - N/A   Scattered Clouds
12:40 PM 37.4 °F 33.8 °F 32.0 °F 81% 29.75 in 10.0 mi SE 4.6 mph - N/A   Scattered Clouds
1:00 PM 37.4 °F 30.3 °F 32.0 °F 81% 29.75 in 10.0 mi SSE 10.4 mph - N/A   Mostly Cloudy
1:20 PM 37.4 °F 32.1 °F 32.0 °F 81% 29.75 in 10.0 mi SSE 6.9 mph - N/A   Mostly Cloudy
1:40 PM 37.4 °F - 32.0 °F 81% 29.75 in 10.0 mi Calm Calm - N/A   Scattered Clouds
2:00 PM 35.6 °F 29.2 °F 32.0 °F 87% 29.75 in 10.0 mi SE 8.1 mph - N/A   Mostly Cloudy
5:00 PM 32.0 °F 24.2 °F 30.2 °F 93% 29.75 in 10.0 mi ESE 9.2 mph - N/A   Overcast
5:20 PM 33.8 °F 23.9 °F 30.2 °F 87% 29.76 in 10.0 mi SSE 15.0 mph - N/A   Overcast
6:00 PM 32.0 °F 25.6 °F 30.2 °F 93% 29.76 in 10.0 mi ESE 6.9 mph - N/A   Mostly Cloudy
6:20 PM 32.0 °F 24.2 °F 30.2 °F 93% 29.76 in 10.0 mi ENE 9.2 mph - N/A   Overcast
6:40 PM 32.0 °F 25.6 °F 30.2 °F 93% 29.76 in 10.0 mi ENE 6.9 mph - N/A   Mostly Cloudy
7:00 PM 32.0 °F 26.4 °F 30.2 °F 93% 29.76 in 2.5 mi East 5.8 mph - N/A   Mostly Cloudy
7:20 PM 32.0 °F - 30.2 °F 93% 29.75 in 5.0 mi Calm Calm - N/A   Overcast
8:00 PM 32.0 °F 28.7 °F 30.2 °F 93% 29.76 in 10.0 mi NNE 3.5 mph - N/A   Overcast
8:20 PM 32.0 °F 28.7 °F 30.2 °F 93% 29.76 in 10.0 mi NE 3.5 mph - N/A   Overcast
8:40 PM 32.0 °F 27.5 °F 30.2 °F 93% 29.76 in 10.0 mi ESE 4.6 mph - N/A   Overcast
9:00 PM 32.0 °F - 30.2 °F 93% 29.75 in 10.0 mi Calm Calm - N/A   Overcast
9:20 PM 32.0 °F - 30.2 °F 93% 29.76 in 9.0 mi Calm Calm - N/A   Overcast
10:00 PM 30.2 °F 26.7 °F 28.4 °F 93% 29.75 in 1.2 mi NNW 3.5 mph - N/A   Overcast
10:20 PM 30.2 °F - 28.4 °F 93% 29.75 in 0.8 mi Calm Calm - N/A   Overcast
10:40 PM 30.2 °F - 28.4 °F 93% 29.75 in 0.2 mi Calm Calm - N/A   Overcast
11:00 PM 28.4 °F 24.6 °F 28.4 °F 100% 29.75 in 0.2 mi NNW 3.5 mph - N/A   Overcast
11:20 PM 28.4 °F - 28.4 °F 100% 29.74 in 0.2 mi Calm Calm - N/A   Overcast
11:40 PM 28.4 °F - 26.6 °F 93% 29.74 in 0.5 mi Calm Calm - N/A   Overcast